Flag for Switzerland Weather past 2 weeks in Grenchen, Solothurn, Switzerland

Now
49 °F

Cool.


Feels Like: 49 °F
Forecast: 43 / 66 °F
Wind: 2 mph from East

Location: Grenchen

Current Time: Aug 20, 2014 at 7:24:06 AM

Latest Report: Aug 20, 2014 at 6:00 AM


Visibility: N/A

Pressure: 30.05 "Hg

Humidity: 90%

Dew point: 46 °F

Location of GrenchenLocation

Historic Weather in Grenchen — Graph

°F

Grenchen temperature yesterday

Maximum temperature yesterday: 70 °F (at 3:00 PM)
Minimum temperature yesterday: 57 °F (at 8:00 AM)
Average temperature yesterday: 62 °F

Past Weeks' High & Low Weather Summary

 TemperatureHumidityPressure
High80 °F (Aug 8, 5:00 PM)100% (Aug 17, 6:00 AM)30.24 "Hg (Aug 17, 6:00 AM)
Low47 °F (Aug 17, 7:00 AM)42% (Aug 18, 4:00 PM)29.69 "Hg (Aug 13, 9:00 AM)
Average63 °F77%29.98 "Hg
* Reported Aug 5 6:00 AM — Aug 20 6:00 AM, Grenchen, Weather by CustomWeather, © 2014

Note: Actual official high and low records may vary slightly from our data, if they occured in-between our weather recording intervals... More about our weather records

Advertising

Grenchen weather history for previous 24 hours

 ConditionsComfort  
Time TempWeatherWind HumidityBarometerVisibility
6:00 AM
Aug 20
49 °FCool.2 mph90%30.05 "HgN/A
5:00 AM52 °FCool.1 mph90%30.04 "HgN/A
4:00 AM57 °FCool.3 mph72%30.03 "HgN/A
3:00 AM58 °FCool.1 mph80%30.02 "HgN/A
2:00 AM60 °FCool.3 mph65%30.01 "HgN/A
1:00 AM61 °FCool.1 mph63%30.02 "HgN/A
12:00 AM62 °FRefreshingly cool.5 mph58%30.01 "HgN/A
11:00 PM
Aug 19
64 °FMild.5 mph51%30.00 "HgN/A
10:00 PM64 °FMild.6 mph51%29.98 "HgN/A
9:00 PM64 °FMild.3 mph51%29.96 "HgN/A
8:00 PM65 °FMild.8 mph51%29.94 "HgN/A
7:00 PM67 °FMild.9 mph49%29.92 "HgN/A
6:00 PM67 °FMild.10 mph49%29.92 "HgN/A
5:00 PM69 °FMild.10 mph48%29.91 "HgN/A
4:00 PM68 °FMild.10 mph50%29.91 "HgN/A
3:00 PM70 °FMild.8 mph47%29.90 "HgN/A
2:00 PM68 °FMild.8 mph50%29.90 "HgN/A
1:00 PM67 °FMild.5 mph58%29.92 "HgN/A
12:00 PM65 °FMild.7 mph63%29.93 "HgN/A
11:00 AM64 °FMild.7 mph71%29.94 "HgN/A
10:00 AM61 °FCool.5 mph79%29.94 "HgN/A
9:00 AM60 °FCool.1 mph85%29.94 "HgN/A
8:00 AM57 °FCool.1 mph96%29.95 "HgN/A
7:00 AM57 °FCool.1 mph93%29.94 "HgN/A
Weather by CustomWeather, © 2014

See weather overviewHow to use our weather pages